This is the latest recevied weather packets stored in our database for station/object EA7AIS-10. If no packets are shown the sender has not sent any weather packets the latest 10 day(s).
| Time | Temp. | Humidity | Pressure | Rain* | Wind** | Luminosity | Snow |
|---|---|---|---|---|---|---|---|
| 1778021203 | 16.67° C | 69% | 1010.5 hPa | - | - | - | - |
| 1778020303 | 16.67° C | 68% | 1010.6 hPa | - | - | - | - |
| 1778019403 | 16.67° C | 67% | 1010.7 hPa | - | - | - | - |
| 1778018503 | 16.67° C | 64% | 1010.8 hPa | - | - | - | - |
| 1778017603 | 16.67° C | 64% | 1011 hPa | - | - | - | - |
| 1778016703 | 16.67° C | 64% | 1010.8 hPa | - | - | - | - |
| 1778015803 | 16.67° C | 63% | 1010.5 hPa | - | - | - | - |
| 1778014903 | 17.22° C | 63% | 1010.4 hPa | - | - | - | - |
| 1778014003 | 17.22° C | 64% | 1010.4 hPa | - | - | - | - |
| 1778013103 | 17.22° C | 63% | 1010.4 hPa | - | - | - | - |
| 1778012203 | 17.22° C | 62% | 1010.4 hPa | - | - | - | - |
| 1778011302 | 17.22° C | 59% | 1010.1 hPa | - | - | - | - |
| 1778010403 | 17.78° C | 57% | 1009.9 hPa | - | - | - | - |
| 1778009502 | 17.78° C | 55% | 1009.9 hPa | - | - | - | - |
| 1778008602 | 18.33° C | 52% | 1009.6 hPa | - | - | - | - |
| 1778007702 | 18.33° C | 44% | 1009.7 hPa | - | - | - | - |
| 1778006802 | 18.89° C | 34% | 1009.7 hPa | - | - | - | - |
| 1778005902 | 19.44° C | 31% | 1009.8 hPa | - | - | - | - |
| 1778005003 | 19.44° C | 32% | 1009.9 hPa | - | - | - | - |
| 1778004102 | 20° C | 32% | 1010.1 hPa | - | - | - | - |
| 1778003202 | 20° C | 32% | 1010.1 hPa | - | - | - | - |
| 1778002302 | 20.56° C | 32% | 1010.1 hPa | - | - | - | - |
| 1778001402 | 20.56° C | 32% | 1010 hPa | - | - | - | - |
| 1778000502 | 21.11° C | 32% | 1010 hPa | - | - | - | - |
| 1777999601 | 21.11° C | 33% | 1010 hPa | - | - | - | - |
* Rain since midnight (hover to see other rain measurements)
** Current wind speed in m/s (hover to see current wind gust speed)